Tracking 29892 objects as of 21-Nov-2024
HD Live streaming from Space Station
objects crossing your sky now

FENGYUN 1C DEB

Track FENGYUN 1C DEB now!
10-day predictions


NORAD ID: 31673
Int'l Code: 1999-025CCF
Perigee: 704.3 km
Apogee: 887.2 km
Inclination: 99.4 °
Period: 100.6 minutes
Semi major axis: 7166 km
RCS: 0.0088 m2 (small)
Launch date: May 10, 1999
Source: People's Republic of China (PRC)
Launch site: Taiyaun Space Center, China (TSC)

Note: This is SATELLITE DEBRIS
Your satellite tracking list
Your tracking list is empty




NASA's NSSDC Master Catalog

Two Line Element Set (TLE):
1 31673U 99025CCF 24322.39091030  .00001167  00000-0  42410-3 0  9992
2 31673  99.3618 119.9180 0127634  91.9808 269.5994 14.30925787593068
Source of the keplerian elements: AFSPC